Location: Los Ranchitos
(37.9930°N, 122.5425°W)
Time: 07:14:34
(UTC+00:00)

NOSS 3-4 (C) - Pass Details

Date: 21 September 2020
Orbit: 886 x 1326 km, 63.4° (Epoch: 23 October)

Event Time Altitude Azimuth Distance (km) Brightness Sun altitude
Rises 04:07:04 0° 203° (SSW) 3,477 6.4 -23.6°
Reaches altitude 10° 04:09:32 10° 201° (SSW) 2,539 5.7 -24.0°
Maximum altitude 04:15:19 70° 119° (ESE) 959 3.2 -25.1°
Enters shadow 04:17:53 35° 46° (NE) 1,430 4.1 -25.5°
Exits shadow 04:21:29 10° 37° (NE) 2,695 5.7 -26.2°
Sets 04:24:04 0° 35° (NE) 3,667 6.4 -26.7°
